{"data":{"norad_id":60068,"epoch":"2026-09-21T09:24:34.474752Z","epoch_age_seconds":101129,"freshness":"FRESH","line1":"1 60068U 24113K   26264.39206568 -.00000175  00000+0  34088-5 0  9991","line2":"2 60068  53.1575 306.8236 0000954  89.4654 270.6473 15.69701403130290","mean_motion":15.69701403,"eccentricity":9.54e-5,"inclination_deg":53.1575,"raan_deg":306.8236,"arg_perigee_deg":89.4654,"mean_anomaly_deg":270.6473,"bstar":3.4088e-6,"rev_number":13029,"period_min":91.737192643638,"perigee_km":359.10855730654,"apogee_km":360.39414640407,"semimajor_km":6737.8883518553,"source":"CELESTRAK","updated_at":"2026-09-22T09:00:49.148100Z"}}